Temp
16 16 16 16 16 16 16 17 16 16 15 15 16 16 16 15 15 15 15 15 15 16 16 16 16 16 16 16 17 17 17 17 18 19 19 19 19 19 19 18 18 18 18 18 19 19 20 21 21 21 21 22 21 22 23 23 22 21 20 19 20 21 22 23 24 24 23 23 23 23 23 22 22 23 23 22 21 22 22 22 23 23 23 23 23 22 19 18
15 16 16 16 16 16 16 17 17 16 16 16 16 16 16 16 16 16 16 16 16 16 16 16 16 16 16 17 17 17 17 17 18 20 20 19 19 19 19 18 18 18 18 18 19 20 21 21 22 22 21 21 22 22 22 22 22 21 20 20 20 21 23 24 24 24 23 23 22 22 22 22 21 22 23 22 21 22 21 22 22 23 24 23 23 22 19 18
15 15 16 16 16 16 16 17 17 16 16 16 16 16 16 16 16 16 16 16 16 16 16 16 16 16 16 17 17 17 17 17 19 20 19 19 19 19 18 18 18 18 18 18 19 20 21 21 22 22 21 21 22 22 21 22 22 21 20 20 20 22 23 24 24 24 23 22 22 21 21 21 21 22 22 21 21 21 21 21 22 22 23 23 23 22 19 18
16 15 16 16 16 16 16 16 17 16 16 16 15 16 16 16 16 16 16 16 16 16 16 16 16 16 17 17 17 17 17 18 19 19 18 19 19 18 18 18 18 18 18 18 18 19 20 21 21 22 21 21 22 23 22 22 22 22 21 20 21 23 22 23 23 23 22 21 21 20 21 21 21 22 22 21 20 20 21 22 22 22 22 23 23 23 21 19
16 16 16 17 17 16 17 17 16 16 16 16 16 16 16 16 16 16 16 16 16 16 16 16 16 17 17 17 17 17 17 18 19 18 18 19 19 18 18 18 18 18 18 18 19 20 20 21 21 21 21 20 21 22 22 22 22 21 21 21 22 22 22 22 23 22 20 21 21 20 20 20 21 21 21 20 19 19 21 22 22 22 22 22 22 22 22 20
16 17 17 17 17 17 17 17 17 16 16 16 16 16 16 15 15 16 16 16 16 16 16 16 16 17 17 17 17 17 17 18 19 18 18 18 18 18 18 18 18 18 18 18 19 20 20 21 21 20 21 21 21 22 22 23 23 21 21 21 22 22 22 22 23 21 20 20 20 20 20 20 20 20 20 20 19 20 21 22 22 22 22 22 22 22 21 21
16 17 17 17 17 17 17 17 17 16 16 15 15 15 15 15 15 15 16 16 16 16 16 17 16 17 17 17 16 16 17 19 19 18 18 18 18 18 18 18 18 18 18 18 20 21 21 21 21 21 21 21 21 22 22 23 22 20 20 21 21 21 22 22 22 21 21 20 20 20 20 19 19 19 20 20 20 21 21 22 22 22 22 22 22 21 21 20
16 17 17 17 17 17 17 17 16 16 16 15 15 15 15 15 15 15 16 16 16 16 16 17 16 17 17 16 16 17 18 19 18 18 18 18 18 18 18 18 18 18 18 19 20 20 20 20 21 21 20 20 21 21 21 21 21 20 20 21 21 21 22 22 21 21 21 20 20 20 19 19 19 19 19 19 20 21 21 22 22 22 22 22 21 21 21 21
16 17 17 17 17 16 16 16 16 16 15 15 14 14 14 15 15 15 16 16 16 16 16 16 16 17 16 16 16 18 18 18 17 17 18 18 18 18 18 18 18 18 19 20 20 20 20 20 21 21 19 20 21 21 21 20 19 20 20 20 21 21 21 21 21 21 21 21 21 20 19 19 20 19 19 20 21 21 22 22 22 22 21 21 21 21 20 19
16 17 16 16 16 16 16 16 16 15 15 15 14 14 14 15 15 15 15 16 16 16 16 16 16 16 16 16 17 18 18 17 17 17 17 18 17 18 18 18 18 19 20 20 20 20 20 20 20 20 19 19 19 20 20 19 19 20 19 19 20 19 20 20 20 20 20 21 21 19 18 19 20 19 18 20 22 21 21 21 22 22 21 20 20 18 16 14
16 16 16 16 16 16 16 16 16 16 15 15 15 14 15 15 15 15 16 16 17 16 16 16 16 16 16 17 18 18 17 17 17 17 17 18 18 18 18 18 18 19 19 20 20 20 20 20 20 20 19 19 19 19 20 19 19 19 19 19 19 19 19 20 20 20 21 20 20 19 18 18 19 18 18 20 21 21 21 21 21 19 17 16 16 14 12 11
16 16 16 16 16 16 16 16 16 16 15 15 15 15 15 15 15 16 16 17 17 17 16 16 16 16 16 17 18 18 17 17 17 17 17 17 18 18 18 18 18 18 19 19 20 20 19 19 19 19 19 19 18 19 19 18 18 19 19 18 18 19 19 20 21 20 21 20 19 18 17 19 18 18 19 20 21 21 20 19 17 15 14 13 13 12 11 10
16 16 16 16 16 16 16 16 16 16 16 15 15 15 15 15 16 16 17 17 17 16 16 16 16 16 16 17 18 17 17 17 17 17 17 17 18 18 18 18 17 17 18 18 19 19 18 19 19 19 19 18 18 18 18 18 18 18 18 18 18 18 19 21 21 19 20 19 18 18 18 20 20 19 20 21 21 20 17 15 14 13 13 12 12 11 10 9
16 16 16 16 16 16 16 16 16 16 16 15 15 16 16 16 16 16 16 17 17 16 16 16 16 16 16 18 17 17 17 17 17 18 17 17 18 18 18 17 17 17 18 18 18 18 18 18 18 18 19 18 18 18 17 18 19 18 18 18 17 17 19 21 20 19 19 18 18 18 17 19 20 20 20 20 19 17 14 13 12 12 11 11 10 10 9 8
16 16 16 16 16 16 16 16 16 16 15 16 16 16 16 16 16 16 16 17 16 16 16 16 16 16 17 18 17 17 17 17 18 17 17 17 18 18 18 18 18 18 17 18 18 18 18 18 18 18 18 18 18 17 17 18 19 19 18 18 18 17 19 20 19 19 19 18 18 18 17 19 20 19 18 18 16 14 13 12 11 10 10 10 9 9 8 8
16 16 16 16 16 16 16 16 16 16 16 16 16 16 16 16 16 16 16 16 16 16 16 16 16 17 17 18 17 17 17 18 18 17 17 17 17 18 18 18 18 18 17 17 18 18 18 18 18 17 17 18 18 17 17 17 18 19 18 17 19 18 20 20 19 19 19 18 17 18 17 18 20 18 15 16 14 13 12 10 10 9 9 9 8 8 8 7
16 16 16 16 16 16 16 16 16 16 16 16 16 16 16 16 16 16 16 16 16 16 16 16 18 18 17 18 17 18 18 18 18 17 16 16 16 17 17 18 19 18 18 18 18 18 18 18 18 17 17 17 18 18 17 17 18 19 18 18 19 19 20 19 18 18 19 18 17 18 17 17 19 17 14 14 13 12 11 10 9 8 8 8 8 7 7 6
16 16 16 16 16 16 16 16 16 16 16 16 16 16 16 16 16 16 16 16 16 16 16 16 17 17 17 18 18 18 18 18 17 17 17 16 16 17 17 18 19 19 18 18 17 18 18 18 18 17 17 17 18 18 16 17 18 18 18 18 18 18 18 18 19 18 18 18 17 17 17 17 19 15 12 12 11 10 10 9 9 8 8 7 7 7 6 6
16 16 15 15 15 16 16 16 16 16 16 16 16 16 15 15 15 16 16 16 16 16 16 17 17 17 17 18 19 18 18 17 17 17 17 16 16 17 17 18 18 18 18 18 18 18 18 18 18 17 17 18 19 18 17 18 19 18 18 18 17 17 17 18 19 17 17 17 16 17 17 18 18 14 11 11 10 9 9 8 8 7 7 7 6 6 6 5
15 15 15 15 15 16 15 15 15 15 16 16 15 16 16 16 17 16 17 17 17 17 17 17 17 18 18 18 18 18 17 17 17 17 17 16 16 17 18 18 18 18 17 18 18 17 17 17 16 17 17 19 19 19 18 18 18 18 17 17 16 16 16 18 19 16 16 16 16 18 17 18 17 12 10 10 9 8 8 7 7 7 6 6 6 6 5 5
15 15 15 15 15 15 15 15 15 15 16 15 15 16 17 17 17 17 17 16 16 17 17 17 17 17 17 17 17 17 17 17 17 17 17 16 17 17 18 18 17 17 17 18 18 17 16 16 16 17 18 19 18 18 18 17 17 17 17 16 16 16 17 18 18 15 16 16 16 17 17 18 15 11 10 9 8 7 7 7 6 6 6 6 5 5 5 5
15 15 15 15 15 15 15 15 15 15 16 15 15 17 18 17 16 17 17 17 16 16 17 17 17 17 17 17 16 16 16 17 17 17 16 17 17 17 17 18 18 18 18 18 18 16 16 16 17 17 17 17 18 18 17 16 16 16 16 16 15 16 17 18 16 16 16 15 15 16 17 16 12 10 9 8 7 7 7 7 6 6 6 5 5 5 5 5
15 15 15 15 15 15 15 15 15 15 16 16 16 17 17 17 16 16 16 17 16 16 17 17 17 18 17 16 16 16 16 17 17 16 16 16 17 17 16 17 18 18 18 18 18 17 17 17 17 17 16 16 17 17 17 16 16 15 15 16 16 17 17 16 16 16 16 16 16 16 16 14 11 9 9 8 8 7 7 7 6 6 6 5 5 5 4 4
15 15 15 15 15 15 15 15 15 16 16 16 16 17 17 17 17 16 16 17 17 16 16 16 17 17 17 16 16 16 17 17 17 16 15 16 17 16 16 17 17 17 18 18 18 17 17 16 15 16 16 16 16 16 16 16 15 16 15 15 15 16 15 15 15 16 15 16 16 15 15 14 11 9 8 8 8 7 7 7 6 6 6 5 5 4 4 4
15 16 16 15 15 15 15 15 15 16 16 16 16 16 17 17 17 16 16 17 17 16 16 16 17 17 16 16 16 16 17 16 16 15 15 15 15 15 16 16 16 16 17 16 17 17 17 15 15 16 16 16 16 15 16 15 15 16 14 13 14 14 14 14 15 15 14 15 16 15 14 14 11 9 8 8 8 7 7 6 6 6 5 5 4 4 4 3
15 16 16 16 15 14 15 16 16 16 16 16 16 16 17 17 17 16 16 17 17 16 16 16 17 16 16 16 17 16 16 15 15 15 15 14 14 14 15 16 16 16 16 15 16 16 16 15 15 15 15 15 16 15 15 14 14 15 13 12 13 13 13 14 14 14 13 14 15 15 14 13 12 10 9 8 7 7 6 6 6 5 5 4 4 3 3 3
15 16 16 15 15 15 15 16 16 17 16 16 16 17 17 16 16 16 16 17 17 16 16 17 17 16 16 16 17 16 15 15 15 15 15 14 14 14 15 16 16 16 15 15 16 15 15 15 14 15 15 15 15 14 14 14 13 14 13 12 12 13 13 13 13 13 13 14 14 15 15 13 13 11 9 9 7 6 6 5 5 5 4 4 3 3 3 2
15 15 15 15 15 15 15 16 16 16 16 16 16 16 16 16 16 16 16 17 17 17 17 17 16 16 16 17 17 16 15 15 15 14 14 14 14 15 15 15 15 15 15 15 15 15 14 14 14 14 14 14 14 14 13 13 13 14 12 11 12 12 12 13 13 12 13 13 13 15 15 14 13 11 9 9 7 6 6 4 4 4 4 3 3 3 2 2
15 15 15 15 15 15 15 15 16 16 16 16 16 16 16 16 16 16 16 17 17 17 17 17 16 16 17 17 17 17 16 16 16 15 15 14 14 14 14 14 14 15 15 15 15 15 13 13 13 13 13 14 14 13 12 12 13 13 12 11 11 12 12 12 12 12 13 13 12 14 15 14 13 10 9 10 6 5 5 4 4 4 3 3 2 2 2 2
15 15 15 15 14 14 15 15 15 15 16 16 16 15 16 15 15 16 17 17 17 16 16 17 16 16 17 16 16 17 16 16 16 16 15 15 15 15 14 13 14 14 14 14 14 14 13 12 12 12 12 13 12 12 12 11 12 12 11 12 13 13 13 12 12 13 12 12 13 14 15 14 13 9 6 6 4 4 5 4 4 4 3 3 2 2 2 1
14 14 14 14 14 14 15 16 15 16 16 16 15 15 15 15 16 17 17 17 17 16 16 16 16 16 16 16 15 16 15 16 16 16 16 15 15 15 14 13 13 13 14 14 14 14 13 12 12 11 11 12 12 12 12 10 10 11 11 13 13 14 15 13 13 13 11 12 14 14 14 14 13 8 4 4 4 4 4 3 3 3 2 2 2 2 1 1
14 14 14 14 14 14 15 15 15 16 16 15 15 15 15 16 17 17 17 16 16 16 15 15 16 16 15 15 15 14 14 15 16 15 15 14 13 13 13 12 12 13 14 15 15 15 14 13 12 11 10 11 11 12 12 11 11 12 12 13 12 12 13 12 12 13 12 13 15 14 13 12 10 6 4 4 4 4 3 3 3 2 2 2 2 1 1 1
13 14 14 14 15 15 15 15 15 15 15 15 15 16 16 17 16 16 16 17 16 15 15 14 15 15 15 15 15 14 14 15 15 16 15 15 13 12 12 12 12 12 13 14 14 14 14 12 12 12 12 11 12 13 12 12 12 13 13 13 11 10 10 10 11 12 12 13 14 14 13 12 8 4 4 4 3 4 3 3 3 2 2 1 1 1 1 1
13 14 14 14 15 15 15 15 15 15 15 15 15 16 16 17 16 14 15 16 15 15 15 14 15 15 15 15 14 13 14 15 15 15 15 15 14 12 12 12 12 12 12 13 13 13 13 13 13 13 13 12 12 12 11 11 12 12 13 12 11 11 10 9 10 10 10 11 12 12 12 11 9 5 3 4 4 4 3 3 3 2 2 2 2 2 1 1
14 14 14 14 14 14 15 15 15 15 15 15 16 16 16 16 16 15 14 14 15 15 15 14 14 15 15 15 14 13 13 14 15 15 14 14 13 12 11 11 11 11 11 12 13 12 13 14 13 12 12 12 12 12 11 11 12 12 13 12 11 11 10 10 10 10 10 10 10 12 10 7 5 4 4 5 4 4 3 3 3 2 2 2 2 2 1 1
14 14 14 14 14 14 15 16 16 15 15 15 17 16 15 14 14 14 13 13 14 13 13 14 14 15 16 15 15 14 13 14 15 14 13 12 11 11 11 11 11 11 11 11 11 12 12 13 13 12 11 12 12 11 11 11 12 12 12 12 11 12 11 10 10 11 11 9 9 12 11 6 3 4 5 5 4 3 3 2 2 2 2 1 1 1 1 1
15 15 14 14 14 14 15 16 16 15 15 16 16 15 14 13 12 12 12 12 13 12 13 15 14 14 16 15 15 14 13 14 15 15 14 12 11 10 10 11 11 11 11 10 11 12 11 11 13 13 13 12 10 10 11 11 11 12 11 12 11 11 12 10 9 9 9 8 9 11 11 8 6 5 4 3 3 2 2 2 2 1 1 1 1 1 1 1
15 15 15 14 14 15 15 16 15 15 16 16 15 14 14 12 11 11 10 11 12 12 13 15 14 14 15 14 14 14 13 14 14 15 14 13 11 10 9 10 11 11 11 10 11 12 11 10 12 13 13 12 10 10 11 11 11 11 11 12 11 9 10 10 9 8 7 7 8 9 10 9 6 4 3 2 2 1 1 1 1 1 1 1 1 1 1 1
15 15 15 15 15 15 15 16 16 16 17 17 15 13 13 11 10 10 9 9 11 12 13 14 14 14 14 13 13 13 13 13 14 14 14 13 11 10 9 9 10 10 10 10 10 11 11 11 11 13 13 13 11 11 12 11 11 11 11 12 12 10 9 9 8 8 6 6 6 7 9 7 3 2 2 2 2 2 1 1 1 1 1 1 1 1 1 1
15 16 15 15 15 16 16 16 16 16 16 15 14 13 12 11 10 10 9 9 11 12 13 13 13 14 14 13 13 13 13 13 14 14 13 12 11 9 8 9 9 9 9 10 10 10 11 11 11 12 13 13 12 11 11 11 11 11 10 11 10 9 9 8 8 8 7 6 6 6 7 5 2 2 3 1 2 2 1 1 1 1 2 2 2 1 1 1
16 16 15 15 16 16 16 16 16 16 15 14 13 12 11 11 11 11 10 10 11 11 12 12 13 13 12 13 13 12 12 13 14 13 12 11 10 9 8 8 8 8 9 10 10 10 9 10 10 10 11 12 12 11 11 11 11 11 10 10 9 8 8 6 6 8 7 6 6 4 4 4 3 2 3 2 2 2 2 2 1 2 2 1 1 1 1 1
16 16 15 16 16 16 16 16 15 15 14 12 12 11 11 11 11 11 11 11 11 12 12 12 12 12 11 12 12 12 12 13 13 13 12 10 9 8 8 8 8 9 9 9 9 9 9 8 9 9 11 11 11 11 11 11 11 11 10 9 8 7 7 5 5 6 5 4 5 4 4 3 1 1 3 2 2 3 3 2 2 1 2 1 1 1 0 0
16 15 15 16 16 16 16 15 14 13 11 10 10 11 11 12 12 11 11 11 12 12 12 12 11 11 11 11 11 11 11 12 12 12 12 10 8 8 8 8 9 9 9 8 8 9 9 9 9 9 11 11 10 10 11 11 11 11 9 8 6 6 5 5 4 4 3 3 4 3 3 3 1 2 3 3 2 3 3 2 2 1 1 1 1 0 0 -0
16 16 16 16 17 16 16 15 13 11 11 11 11 10 10 11 10 11 11 10 11 12 12 11 11 11 11 11 11 11 11 11 11 11 11 10 8 8 8 8 8 8 7 7 7 8 8 9 9 8 9 10 9 9 10 10 9 9 8 6 4 4 4 3 4 3 2 3 3 2 3 4 3 2 3 2 2 2 2 2 2 1 1 0 0 0 -0 -0
16 16 16 16 16 16 15 14 13 12 11 12 11 11 11 10 9 10 10 10 10 11 11 11 10 10 11 11 11 11 11 11 11 10 10 9 8 8 8 8 8 7 7 6 7 7 7 9 9 8 7 7 7 8 8 8 8 8 8 5 3 3 3 3 3 2 2 2 1 1 2 3 3 2 2 2 2 2 1 1 1 1 0 -0 -0 -0 -0 -1
16 16 16 16 16 15 14 14 14 13 12 12 12 12 12 10 9 10 10 10 10 11 11 11 10 10 11 11 11 11 11 11 10 9 9 8 9 8 8 8 8 7 7 6 7 7 7 8 8 8 8 7 7 7 8 8 7 7 7 5 3 3 2 2 2 1 1 1 -0 1 2 0 0 1 1 1 2 1 1 1 1 0 -0 -0 -0 -1 -1 -1
15 15 14 14 15 14 14 14 14 14 13 13 12 12 12 11 10 11 10 10 10 10 11 10 10 10 10 10 10 11 11 10 10 9 7 7 8 8 8 8 8 8 7 7 7 7 7 7 7 7 7 7 7 7 7 7 7 7 7 6 4 3 2 2 1 1 2 -0 -1 1 1 -1 -1 0 0 1 1 1 1 0 0 -0 -1 -1 -1 -1 -1 -1
14 14 12 12 13 13 13 13 13 13 13 13 12 12 12 11 10 10 10 10 10 10 11 10 9 10 9 9 10 10 10 10 9 8 7 7 7 7 8 8 7 8 8 7 7 7 6 6 6 6 6 6 6 7 7 7 7 7 7 6 4 3 2 1 1 1 1 -0 -1 1 0 -1 -1 -0 0 1 1 0 0 -0 -0 -1 -1 -1 -1 -1 -2 -2
13 12 12 12 12 11 11 12 13 13 13 13 12 11 12 11 9 9 9 10 11 10 10 10 9 9 9 9 10 9 8 9 8 7 7 6 6 7 7 7 7 8 8 7 7 6 6 6 6 5 5 5 6 7 7 7 7 7 6 5 3 3 2 2 1 1 1 0 0 0 -1 -1 -1 -0 0 1 0 0 0 -0 -1 -1 -1 -1 -2 -2 -2 -2
13 13 12 13 12 11 11 12 13 14 13 13 11 10 11 10 9 9 8 9 10 9 9 9 8 9 9 9 9 8 7 7 7 7 7 6 6 7 7 7 7 7 7 6 6 6 6 6 6 5 5 5 6 7 7 7 6 6 5 4 2 2 2 1 1 1 0 -0 -0 -1 -2 -2 -0 1 0 0 0 -0 -1 -1 -1 -2 -2 -2 -2 -2 -2 -3
13 13 13 13 12 11 12 13 14 14 12 11 10 10 11 10 9 9 8 7 8 8 7 8 8 8 9 8 7 7 6 6 6 6 6 6 6 7 7 6 6 6 6 6 5 5 5 5 5 5 4 4 6 7 7 6 6 6 5 3 2 2 1 -0 -0 0 -0 -1 -2 -2 -3 -2 -0 0 -1 -1 -1 -1 -2 -2 -2 -2 -2 -2 -2 -3 -3 -3
12 13 14 14 12 11 12 13 13 13 10 9 9 9 10 10 9 9 8 8 8 7 7 7 7 8 9 8 6 5 5 5 5 5 5 5 6 6 6 6 6 5 5 5 4 5 4 3 4 4 4 4 5 6 6 5 4 4 3 2 1 1 -0 -1 -1 -1 -1 -1 -3 -3 -2 -1 -1 -1 -2 -2 -2 -2 -2 -2 -2 -2 -2 -2 -3 -3 -3 -3
Height
802 802 802 801 800 800 800 802 802 801 802 802 802 802 802 803 803 804 804 804 805 804 805 805 805 805 804 804 804 804 804 804 803 802 802 802 802 802 803 803 802 801 801 800 800 800 798 798 797 796 797 796 796 794 791 791 791 795 802 809 808 801 794 784 779 780 782 783 780 778 778 783 785 781 779 780 782 782 781 780 777 775 772 772 773 775 776 777
802 801 801 801 800 799 799 801 801 800 800 800 801 801 801 802 802 802 803 804 804 805 805 805 805 804 804 804 804 804 804 803 803 801 801 801 802 802 802 802 802 801 800 800 799 798 797 796 794 795 797 796 794 792 792 791 791 797 801 805 803 794 786 778 777 778 780 783 782 781 782 785 787 784 780 783 784 781 782 781 777 775 770 768 770 773 774 775
801 800 800 800 799 798 799 799 799 799 799 799 799 800 800 800 801 801 802 803 803 804 804 804 804 804 804 804 804 804 804 803 802 800 800 801 802 802 802 802 801 800 800 799 799 798 797 796 794 795 796 796 792 791 793 792 791 794 798 804 798 787 782 777 777 778 779 782 784 786 785 786 786 783 781 784 785 783 784 782 778 776 771 769 769 771 774 776
800 800 799 799 798 798 798 798 798 798 798 799 798 798 799 799 800 800 801 802 803 803 803 804 804 804 804 803 804 804 804 804 802 799 800 801 801 802 801 801 801 800 800 799 799 798 798 796 795 795 796 796 791 789 793 792 791 791 794 800 792 784 785 781 779 779 781 783 786 787 787 787 784 782 782 784 787 785 780 778 775 775 773 772 772 771 774 776
799 798 798 798 798 798 798 797 796 797 798 798 798 797 797 798 799 799 800 801 802 802 803 803 803 804 804 803 804 804 805 808 802 798 800 800 801 802 801 801 801 800 799 799 799 798 798 796 795 796 797 797 793 791 792 788 788 791 791 791 786 785 787 782 779 782 783 784 786 788 788 787 783 783 783 784 788 783 776 774 773 773 773 773 774 774 774 777
798 797 797 797 797 797 796 796 796 796 797 797 797 796 796 797 798 798 799 800 801 801 802 803 803 803 803 803 804 804 806 807 801 799 801 800 801 801 801 801 800 800 800 799 799 798 797 795 796 797 796 796 794 792 790 784 785 793 792 787 786 785 785 781 779 782 784 785 787 788 787 785 786 785 782 782 782 775 772 772 772 772 772 773 774 775 776 777
798 797 797 797 797 796 796 795 796 796 796 795 796 795 796 796 797 798 798 799 800 800 801 802 803 803 803 803 804 804 804 802 799 800 801 800 802 801 801 801 800 800 800 800 798 797 797 796 796 795 795 796 793 790 789 785 786 793 794 788 787 785 783 781 780 782 783 785 786 785 786 787 789 786 781 778 773 770 771 770 771 771 771 772 774 775 776 777
798 798 798 797 796 796 796 795 795 795 794 794 794 794 795 795 796 797 797 798 799 800 801 802 803 803 803 803 804 804 802 800 799 800 801 801 801 801 801 801 800 801 800 800 798 797 797 797 796 794 796 796 792 791 789 790 790 792 793 788 785 784 782 781 781 781 781 782 782 783 786 786 786 784 780 774 769 768 770 770 770 771 771 773 775 775 776 777
798 798 797 797 796 795 795 795 794 793 792 792 793 793 794 795 795 796 797 798 798 800 801 801 802 802 803 803 803 804 801 800 800 801 801 801 801 801 801 800 801 801 800 800 798 798 797 796 795 795 799 796 792 792 791 796 796 790 791 789 786 785 783 783 782 781 781 779 780 783 785 784 782 782 779 769 767 768 768 771 771 772 773 774 775 775 777 780
798 797 797 796 796 795 794 794 793 791 791 791 791 792 793 794 795 796 796 797 798 799 800 801 802 802 803 803 804 805 801 800 802 801 801 801 801 801 801 801 802 801 800 799 798 798 797 797 796 795 798 797 795 794 792 796 795 789 791 790 788 787 784 783 782 780 780 778 779 783 785 783 780 784 781 768 765 768 769 772 771 772 775 776 778 781 784 788
797 797 796 796 795 794 793 793 792 790 790 790 791 791 793 794 795 795 796 797 798 799 800 801 801 802 803 803 804 803 800 801 802 801 801 801 801 801 801 801 801 801 800 798 798 797 797 797 796 796 799 798 796 794 791 793 792 790 792 791 789 787 783 780 780 777 777 779 778 782 785 781 781 786 779 769 767 769 770 773 774 777 781 783 786 789 793 795
797 796 796 795 794 794 793 793 792 791 790 790 791 791 792 793 794 795 795 796 798 799 800 801 802 802 803 803 802 800 800 801 801 801 801 801 801 801 801 801 801 801 800 798 797 797 798 798 797 798 798 797 798 796 794 793 792 792 793 795 791 786 783 775 774 774 775 779 779 784 787 778 780 782 773 768 769 769 773 778 782 786 789 792 793 795 799 801
796 796 795 795 794 794 793 792 792 792 791 791 791 792 793 793 794 795 796 797 798 799 800 801 801 802 804 803 799 799 800 800 800 800 801 801 801 801 800 801 800 800 800 799 798 797 798 798 797 798 795 797 799 797 795 792 792 793 792 795 793 790 784 770 771 776 777 781 780 785 790 779 774 775 770 769 770 773 781 787 791 794 796 798 799 801 804 805
796 796 795 795 794 794 793 792 792 792 792 792 792 792 793 793 794 795 796 797 798 799 800 801 802 803 805 802 798 799 799 799 800 800 801 801 800 800 800 800 800 800 800 799 798 798 798 798 797 797 795 797 797 795 796 793 791 792 793 793 794 798 787 771 773 778 780 784 780 785 795 787 776 774 772 771 774 779 789 795 797 800 802 804 805 807 808 809
796 795 795 795 795 794 793 793 793 793 793 793 793 793 794 794 795 796 797 798 798 800 801 802 803 804 804 800 798 799 799 799 800 800 800 801 801 800 799 800 799 799 799 798 798 798 798 797 798 797 795 794 795 798 799 795 789 789 796 797 793 797 788 774 775 776 779 784 781 786 794 788 778 778 779 778 781 786 793 800 803 806 808 809 810 811 813 814
796 796 795 795 795 795 794 794 794 794 794 794 794 795 795 796 796 797 798 798 800 801 801 803 803 803 803 800 799 799 799 799 799 800 800 800 801 800 799 799 798 798 798 798 798 797 797 797 796 797 796 796 797 799 799 797 791 785 795 798 791 791 785 777 779 777 777 782 784 786 790 788 779 781 787 786 788 792 798 805 808 811 812 814 815 816 817 818
796 796 796 796 795 795 795 795 795 795 795 795 796 796 797 797 798 798 799 800 801 801 802 802 801 802 803 800 799 799 798 799 799 800 800 800 800 799 799 798 796 797 797 797 797 796 797 796 796 796 796 798 796 796 803 804 796 789 793 795 790 787 785 784 783 780 778 782 785 785 789 790 782 785 794 793 794 798 803 809 812 815 816 818 819 819 821 822
796 796 796 796 796 796 796 796 796 797 797 797 797 798 798 798 799 800 800 801 801 802 803 802 801 805 806 800 799 799 798 799 800 800 800 800 799 799 799 797 796 796 796 797 797 796 796 795 795 798 798 798 795 798 807 804 795 795 795 795 794 789 790 789 784 782 782 783 787 786 788 786 781 791 800 799 800 803 808 813 815 818 820 821 822 823 824 824
796 796 796 796 796 796 796 797 797 798 798 798 798 798 799 799 800 801 801 802 802 803 805 803 802 806 806 799 798 799 799 799 799 799 800 799 799 799 798 798 796 796 797 798 797 795 796 796 798 802 801 796 792 793 799 795 791 794 793 796 799 797 795 788 782 784 784 786 788 787 788 782 781 795 804 805 806 808 813 816 818 821 823 824 825 826 827 827
796 796 796 796 797 797 797 798 798 799 799 799 799 799 800 800 800 802 801 801 801 802 803 802 801 801 800 798 799 799 799 798 799 799 800 799 799 798 797 796 796 797 799 797 797 796 796 802 803 802 799 791 788 789 790 791 790 793 794 797 798 798 795 784 781 786 785 788 787 783 784 780 783 799 806 809 811 813 818 820 822 824 826 827 828 828 829 829
796 796 796 797 797 797 797 798 799 800 800 800 800 800 800 800 801 802 801 802 802 801 801 800 800 800 800 800 800 800 800 798 798 799 800 799 799 799 796 796 798 798 797 794 795 797 800 806 803 796 793 789 790 791 791 793 794 796 797 798 798 798 793 781 783 788 787 789 787 782 783 782 790 805 809 812 815 819 822 823 826 827 828 830 830 830 831 831
796 796 796 797 797 798 798 799 800 800 800 799 800 799 799 799 801 801 800 802 803 801 801 800 800 799 800 801 800 801 801 799 799 800 800 799 798 799 797 796 797 795 793 793 797 801 803 803 798 793 793 792 792 792 793 797 798 799 799 800 801 795 788 784 786 788 787 791 789 783 783 787 800 810 812 816 819 823 825 825 828 829 830 832 832 833 833 833
796 796 796 797 797 798 798 799 799 799 799 799 799 799 799 800 800 800 800 802 803 802 800 800 800 799 799 801 801 801 801 799 800 801 801 800 798 799 800 798 797 795 793 794 797 802 802 798 796 795 796 796 795 793 795 798 800 800 800 800 797 791 790 793 791 787 787 789 785 782 784 791 805 813 815 819 820 823 826 826 829 830 832 833 833 835 836 836
795 795 795 796 797 798 798 799 799 799 799 799 800 800 799 800 799 800 800 799 801 802 801 801 800 799 800 801 801 800 800 799 801 802 802 801 800 800 801 799 799 799 796 794 796 799 799 798 798 797 796 798 799 798 796 800 801 798 799 801 799 796 797 799 795 790 788 784 779 782 787 790 803 814 818 821 821 823 826 827 830 832 833 835 835 837 839 838
794 794 795 796 797 798 798 799 799 798 799 799 800 800 799 800 799 799 800 800 802 802 802 801 800 800 801 801 801 800 800 801 803 804 803 803 803 802 800 799 801 801 799 799 799 800 799 800 800 798 798 798 800 802 799 803 805 800 803 807 805 803 802 800 797 795 794 787 779 784 790 789 796 810 816 820 822 825 828 830 832 834 836 837 838 840 841 838
793 794 794 796 797 798 799 799 798 799 800 799 799 799 799 800 799 799 801 803 805 804 803 802 801 802 801 800 800 799 802 806 805 805 804 804 804 804 803 799 799 801 802 802 801 801 800 801 802 801 801 801 801 804 803 805 809 805 806 810 807 805 804 801 799 800 800 791 782 784 791 792 794 804 812 817 823 827 830 832 834 836 838 840 842 842 842 839
792 793 794 795 796 798 798 798 798 799 799 799 799 799 799 800 799 800 803 808 809 805 803 802 801 803 802 800 799 801 808 809 806 806 805 805 804 804 805 801 800 801 802 803 803 803 802 802 804 803 805 805 804 806 806 807 811 808 807 810 808 804 804 801 800 803 799 792 785 780 785 789 788 799 810 814 822 828 832 835 836 839 841 842 844 843 842 841
792 792 793 795 796 797 798 798 798 798 798 798 798 799 800 800 800 800 806 814 812 803 802 802 801 802 801 800 799 801 807 806 807 808 805 806 805 804 805 804 804 805 802 806 808 805 804 806 808 809 810 808 807 810 810 811 811 806 807 810 807 805 804 801 801 804 798 796 793 779 778 784 786 802 812 810 822 831 834 839 840 842 844 844 845 844 842 843
791 792 793 794 796 797 798 798 798 797 797 797 798 799 799 800 801 802 808 814 809 803 803 802 802 803 800 801 801 801 804 804 806 808 804 805 806 804 806 805 806 806 804 806 808 806 808 811 811 812 812 810 810 811 812 814 811 806 809 809 807 804 803 802 803 803 798 799 798 781 776 782 786 805 811 808 828 839 836 841 843 843 846 844 845 844 843 844
791 792 793 794 796 797 798 798 797 797 798 797 798 799 800 801 803 806 811 813 808 806 804 802 804 806 802 803 804 803 804 805 805 804 803 805 805 804 806 806 806 807 807 807 807 807 809 813 813 813 815 813 813 813 813 815 811 810 810 805 801 796 792 800 801 799 802 801 791 778 779 783 787 813 829 829 840 845 840 844 846 845 846 846 846 845 846 846
792 792 794 795 796 797 798 797 797 797 798 798 799 799 801 803 804 807 812 810 807 807 806 806 807 807 807 809 810 808 808 807 805 805 806 807 808 807 807 810 810 808 808 807 807 808 809 813 813 816 818 815 815 814 813 816 816 816 812 802 801 794 786 794 795 797 809 804 786 779 782 783 789 818 843 844 844 845 845 847 848 849 848 848 849 848 848 848
792 793 794 795 796 797 797 797 797 798 798 799 799 799 803 806 806 809 811 808 811 812 811 813 811 809 812 813 813 814 812 810 807 807 810 812 816 818 818 823 821 816 812 809 807 807 809 814 816 817 819 817 816 813 810 813 814 813 809 804 809 809 803 806 802 798 803 794 780 780 785 790 806 832 844 844 846 846 847 849 849 852 851 850 851 850 850 849
794 795 796 797 797 797 798 797 797 798 799 799 799 800 805 809 812 816 812 808 815 816 813 816 812 810 812 812 815 817 815 813 809 808 810 812 818 822 824 827 826 824 821 815 813 813 812 815 816 815 816 817 816 813 814 814 810 810 808 809 818 824 827 827 814 804 803 794 783 785 791 795 815 843 847 844 849 848 847 850 850 852 852 852 851 850 850 850
796 796 797 797 797 798 798 798 799 799 799 799 801 804 807 810 816 820 816 812 815 814 813 816 814 812 812 814 818 818 816 814 810 809 810 810 817 824 827 829 828 828 826 819 819 821 818 815 814 813 814 815 814 815 819 817 814 813 808 811 819 822 830 833 822 818 818 809 797 793 798 798 810 840 850 846 848 848 849 851 850 851 852 851 851 850 850 849
798 798 798 798 798 799 798 798 799 798 799 801 802 805 810 814 814 817 820 820 817 815 814 815 815 813 812 815 819 818 818 816 810 812 816 818 824 829 832 835 833 831 831 826 823 822 818 813 813 816 816 815 814 814 817 817 816 813 806 811 818 817 824 828 821 819 818 817 810 796 802 821 833 843 845 843 846 848 850 851 851 852 851 851 851 849 849 848
799 799 799 799 799 799 799 799 799 799 800 801 803 808 816 822 822 820 825 824 821 822 821 817 816 814 811 814 816 816 819 818 812 815 823 828 833 834 835 836 835 834 836 836 831 826 825 818 811 816 817 813 816 816 816 818 816 813 811 815 818 814 818 825 822 813 811 821 815 791 798 831 847 845 841 843 848 849 850 852 852 852 852 852 851 849 848 847
800 799 800 800 800 800 799 799 799 800 800 800 807 814 819 826 828 827 828 826 824 827 823 817 819 819 815 815 817 818 819 818 814 815 821 829 835 840 839 836 836 837 838 841 835 828 833 828 811 810 814 812 818 819 816 818 817 815 817 816 816 814 812 820 827 823 823 828 815 796 799 814 825 836 844 847 851 852 852 852 852 852 852 852 850 848 848 846
800 800 800 800 800 800 800 800 799 800 800 802 812 820 820 826 831 831 833 831 828 827 823 820 821 821 819 820 822 822 821 820 817 815 819 827 835 843 845 841 839 838 838 841 838 830 834 833 816 808 812 813 819 820 816 818 818 818 819 814 817 827 826 824 830 835 841 839 825 812 804 807 825 842 850 853 854 855 853 852 853 853 851 850 848 847 846 846
800 800 801 801 801 800 800 800 799 798 800 804 814 821 824 830 835 834 836 835 831 828 824 824 823 820 822 826 827 825 824 825 823 819 821 829 837 845 847 845 843 842 841 841 840 834 832 834 824 811 810 813 815 817 816 818 818 818 820 814 814 827 831 830 833 838 846 844 835 823 808 818 848 855 852 857 855 854 855 852 853 852 849 849 847 846 846 845
799 800 802 802 800 800 800 799 799 800 805 811 817 823 826 831 835 835 836 835 832 829 827 826 825 824 825 827 828 828 827 826 824 822 826 832 840 848 850 849 848 846 843 839 839 838 833 833 829 817 811 811 814 817 817 817 818 819 822 821 824 828 828 833 833 829 838 841 837 835 824 830 853 854 851 857 854 852 854 852 852 850 847 848 846 846 845 843
799 801 803 802 801 801 799 800 803 804 811 818 821 825 829 831 833 834 835 834 832 831 830 829 828 829 830 829 829 831 830 826 824 825 830 836 842 849 851 851 850 848 845 839 839 842 841 839 838 831 822 816 816 818 817 816 818 821 824 825 832 837 837 847 845 830 836 843 842 849 843 837 850 853 850 854 852 850 850 848 850 848 846 847 845 844 845 842
799 803 804 802 801 801 800 805 809 809 816 826 827 829 831 831 832 834 834 834 832 830 830 831 832 833 836 835 832 834 833 830 829 829 833 841 848 852 852 851 850 847 846 845 843 844 847 846 844 838 826 819 822 821 818 818 816 820 827 828 833 839 841 854 856 845 850 851 846 852 848 842 853 855 848 851 851 848 847 846 848 847 845 846 843 843 843 841
801 804 804 802 802 801 802 810 816 820 827 833 833 833 833 831 832 834 834 835 833 830 830 833 837 837 839 840 837 837 838 835 834 834 836 843 852 856 853 851 849 846 847 851 848 845 845 843 843 837 824 819 825 825 820 820 820 822 829 836 843 848 849 855 856 857 865 859 852 856 848 842 852 851 844 849 848 845 845 844 845 845 843 843 842 842 842 841
802 803 803 803 802 801 805 811 819 827 832 832 833 835 835 835 837 837 838 838 836 834 834 837 840 839 839 841 839 838 841 839 838 840 840 844 853 855 852 851 851 850 853 857 855 852 846 839 842 845 838 831 831 830 827 826 827 829 834 846 854 854 857 860 857 862 867 858 857 863 850 837 841 843 841 844 843 843 844 843 843 843 842 843 843 842 841 840
803 804 804 804 803 803 808 812 816 825 830 830 832 834 834 838 842 841 840 842 840 838 838 840 843 842 840 841 840 839 840 841 842 843 844 848 853 854 853 853 853 853 856 858 856 856 852 845 845 851 853 851 847 844 841 839 838 835 835 849 858 857 860 862 861 868 868 861 865 868 855 843 842 844 845 845 844 844 844 843 843 843 843 844 843 842 841 839
803 806 807 807 805 807 812 812 813 820 826 827 830 832 833 839 843 841 840 843 842 841 841 842 843 843 842 841 840 840 840 842 846 848 852 854 853 853 854 854 855 855 857 858 855 854 853 848 846 847 849 851 850 847 844 843 845 840 836 847 856 857 860 862 865 869 867 870 874 863 855 857 854 850 851 849 846 845 844 844 843 843 843 843 842 841 839 838
804 809 812 811 811 812 815 815 816 820 822 824 829 833 834 837 840 840 841 843 843 843 843 844 845 845 847 847 845 844 843 844 848 853 859 859 854 854 854 853 855 855 855 856 854 854 856 852 851 852 851 850 850 848 845 843 843 839 836 844 852 856 860 864 868 866 865 876 877 857 855 864 860 855 855 850 846 846 845 844 843 843 843 842 840 839 837 837
808 812 815 815 816 818 820 820 820 821 821 823 830 834 834 838 841 842 844 844 843 844 844 847 850 850 852 852 848 849 849 846 850 858 861 861 859 857 854 854 856 854 854 856 855 858 862 859 857 859 857 854 852 848 843 840 839 836 836 843 851 856 861 866 869 866 866 874 872 860 861 866 861 857 855 849 847 847 845 844 844 843 842 840 839 837 836 835
811 814 816 816 819 823 825 823 821 822 824 826 832 836 836 840 846 849 850 847 844 845 845 849 854 853 853 852 849 854 857 853 855 862 863 863 864 860 857 857 857 855 855 857 858 860 862 858 858 861 859 855 850 844 839 838 839 837 838 845 852 855 858 862 864 864 864 866 864 863 867 866 860 857 852 849 849 847 845 845 844 843 842 839 838 836 834 833
809 811 815 816 820 825 825 824 821 823 825 827 834 841 840 842 848 851 854 852 849 849 850 852 856 855 854 854 854 859 863 861 861 863 862 863 863 860 860 860 859 858 857 859 861 861 861 860 859 861 861 855 846 840 838 839 840 837 840 850 857 857 859 862 863 865 867 868 866 868 872 866 857 853 851 850 849 847 846 846 844 843 841 838 836 834 832 830
807 809 810 813 822 826 825 824 821 822 829 834 839 842 842 845 849 852 856 859 856 857 858 858 859 856 854 856 860 863 865 865 865 863 862 864 863 861 861 861 862 862 860 863 866 864 865 868 863 862 865 857 845 843 841 840 839 838 844 855 859 860 865 868 868 868 870 874 875 876 874 864 854 852 852 851 849 848 847 846 843 841 839 837 834 831 829 827
808 809 808 810 821 828 826 824 823 825 838 846 845 845 845 847 850 852 855 859 859 860 862 861 860 857 855 858 864 866 867 867 866 865 864 864 863 861 862 863 864 865 865 867 869 868 870 874 869 866 868 861 849 846 845 846 849 849 851 859 861 864 870 871 870 870 870 874 879 876 869 859 853 854 855 852 850 849 846 843 841 838 837 835 832 828 826 824
Wind_Speed
8 6 5 4 5 6 9 9 9 7 6 6 7 9 9 10 10 9 7 5 4 4 4 4 4 2 2 3 2 2 3 4 7 10 8 2 2 2 3 3 4 4 3 3 3 5 6 5 7 6 6 5 4 5 4 4 3 2 2 4 4 4 5 7 7 7 6 8 9 9 10 9 9 8 4 1 4 8 8 7 7 8 9 12 14 8 14 15
9 7 6 5 6 6 6 8 10 10 9 7 6 8 10 10 10 10 9 7 7 7 6 5 4 2 2 4 3 2 4 6 11 10 4 2 1 2 2 3 5 3 3 4 5 6 6 5 4 5 5 4 4 3 2 3 4 3 3 4 5 5 6 8 9 8 8 8 9 9 9 9 10 10 6 6 8 9 8 8 8 10 10 9 13 12 16 15
9 8 8 7 6 6 7 7 9 10 10 9 6 6 9 10 10 11 10 10 9 9 8 6 4 3 3 4 4 4 5 8 10 6 4 2 3 2 2 4 4 4 3 4 6 8 8 9 6 4 6 4 4 4 3 2 4 4 3 4 5 6 8 9 10 9 7 7 8 8 8 9 9 8 7 7 10 11 9 8 8 9 8 6 5 6 13 14
9 9 8 8 7 7 8 9 9 10 10 10 8 6 8 9 11 11 11 11 10 9 8 7 5 3 3 4 5 4 5 7 4 2 5 2 2 1 2 4 4 3 2 3 7 8 8 9 7 6 6 4 5 5 4 3 2 3 3 5 6 7 9 9 11 8 6 6 7 9 9 10 8 7 6 7 9 10 7 6 8 9 10 11 10 9 1 10
10 9 8 9 8 8 9 10 11 11 10 10 8 7 8 8 10 11 12 11 10 10 8 8 5 4 4 3 4 3 4 4 1 5 5 2 1 0 1 3 4 3 2 4 7 7 7 8 6 5 5 4 5 4 4 6 5 4 5 7 8 9 9 9 9 5 5 5 7 8 10 8 8 7 7 8 9 9 7 7 9 10 10 10 9 10 8 1
9 10 9 10 10 10 10 10 12 12 11 9 8 8 8 8 8 11 12 11 11 10 9 8 6 4 4 3 2 2 4 1 4 4 3 2 1 0 1 2 4 4 1 5 7 6 6 6 5 5 4 4 6 5 5 5 3 4 5 7 9 10 10 9 8 4 3 7 7 7 8 7 8 9 7 9 12 12 10 9 10 10 8 9 8 7 5 6
9 9 9 10 11 11 11 11 12 13 12 10 10 9 8 8 8 10 11 12 11 10 9 8 6 5 4 2 1 3 5 2 5 5 2 1 1 0 1 2 4 4 3 6 6 5 5 5 5 5 5 4 5 5 5 5 3 4 6 7 9 10 10 8 7 5 5 7 8 7 7 7 9 9 7 11 15 12 11 10 8 9 7 5 6 5 4 4
8 8 9 11 12 11 10 11 13 14 13 12 11 10 9 8 8 9 11 12 11 10 9 8 6 5 4 2 1 4 5 1 5 5 2 1 0 1 1 2 3 4 5 6 5 5 5 5 6 4 4 4 5 5 5 6 5 6 7 8 8 8 9 8 7 8 8 7 7 7 8 8 8 9 10 15 17 11 8 6 5 5 6 5 4 5 4 4
7 8 10 11 11 11 10 11 12 13 12 12 12 11 9 9 9 9 10 11 11 10 9 8 6 6 6 3 3 5 2 4 4 4 2 1 2 2 2 2 3 5 7 4 4 6 4 3 4 3 5 6 6 6 4 4 4 3 7 8 9 9 10 10 10 11 10 7 5 8 10 8 7 7 11 15 12 6 3 4 5 4 3 3 4 5 7 10
8 9 10 11 10 9 9 8 8 8 8 9 10 10 9 8 8 8 8 9 10 9 8 8 7 7 7 4 4 4 3 6 3 3 2 2 3 3 3 3 4 6 7 3 3 5 4 4 5 4 4 5 6 5 4 4 3 5 9 10 11 12 11 10 12 12 9 7 6 8 10 9 6 4 6 8 2 5 6 5 3 4 6 8 10 12 15 18
8 9 10 10 8 8 7 5 4 3 3 4 7 8 8 7 7 7 7 8 9 9 9 8 8 8 6 5 6 3 6 6 2 2 2 3 4 3 3 4 4 6 7 6 5 4 4 5 5 4 2 2 5 6 4 2 4 6 8 11 11 12 12 12 13 11 8 5 2 4 10 10 5 4 10 10 3 5 6 6 8 12 13 15 17 17 17 17
8 9 9 8 7 6 4 3 3 2 1 3 5 6 6 5 6 7 7 8 9 9 9 8 8 7 5 7 5 1 6 5 3 3 2 3 3 3 4 4 4 6 7 8 6 1 2 4 5 5 2 3 5 5 3 4 5 7 7 10 11 11 12 13 10 5 4 2 3 3 8 6 5 8 10 8 2 5 8 11 14 15 14 15 15 14 13 17
8 8 7 6 6 5 3 3 3 2 2 3 4 4 4 4 5 6 7 8 8 8 9 8 8 7 5 5 1 5 6 4 3 3 2 2 4 4 4 5 4 4 5 7 7 3 2 3 5 6 3 4 4 3 4 5 7 8 7 7 8 8 7 5 2 4 3 2 4 2 3 3 3 6 1 3 5 9 13 14 14 12 12 12 13 12 12 17
7 6 5 4 4 4 4 4 3 3 3 4 4 5 5 5 6 6 7 8 8 8 7 7 8 6 6 1 3 5 5 3 1 2 0 3 6 5 3 3 3 4 5 7 6 4 3 4 5 6 3 3 3 4 6 7 6 6 5 5 3 3 2 2 5 5 3 2 3 3 1 3 4 4 5 7 10 14 15 13 13 12 11 11 11 12 12 15
5 4 3 2 2 4 5 4 3 3 4 5 6 7 7 8 8 8 8 8 7 6 7 7 7 5 5 2 2 2 3 2 2 1 3 3 6 5 3 3 4 4 5 7 6 4 5 6 5 5 2 2 2 4 5 5 4 4 3 3 2 2 3 2 5 5 2 1 4 3 1 2 4 9 11 11 13 16 14 12 13 12 12 11 10 11 10 12
4 3 2 0 2 4 5 5 4 4 5 6 7 8 9 9 8 8 7 7 7 8 7 5 7 6 5 0 2 1 3 2 2 1 4 4 4 6 5 6 6 5 5 6 5 5 6 6 3 2 1 2 3 4 4 4 4 3 3 3 3 3 4 1 3 3 2 3 5 4 1 1 1 9 13 12 13 15 13 12 13 12 12 11 9 9 9 10
3 2 2 1 2 4 5 5 5 5 6 8 8 9 9 9 9 8 8 8 8 8 5 3 3 5 3 0 2 1 2 3 2 0 4 5 5 6 7 7 6 5 5 5 5 6 5 4 1 1 2 3 3 3 3 3 2 1 2 3 5 5 5 3 2 1 3 2 3 5 3 4 3 7 12 11 13 14 13 12 12 11 10 10 9 9 9 10
2 3 3 2 3 4 5 5 6 6 7 8 9 9 10 10 10 8 7 7 6 4 3 4 2 2 1 0 0 2 4 4 2 3 4 4 4 4 6 7 5 5 5 5 5 6 4 2 2 1 2 3 3 3 2 3 3 3 3 3 4 6 6 6 4 2 4 3 3 4 4 6 3 8 11 10 13 14 12 11 10 11 10 9 9 9 9 10
3 4 3 3 3 5 5 5 5 6 8 9 10 12 12 10 7 5 4 3 2 1 1 1 1 2 1 1 3 3 3 4 3 3 1 2 4 5 8 7 6 6 5 3 4 4 2 1 2 2 3 4 4 3 5 5 6 7 6 4 5 6 6 9 5 2 1 2 4 5 5 7 1 9 10 10 12 13 12 10 9 9 9 9 8 8 9 10
3 4 4 4 4 5 5 5 5 7 9 9 9 8 6 3 2 2 3 3 1 1 1 1 3 5 2 2 5 6 6 5 2 2 1 3 5 6 6 6 5 5 5 4 2 2 1 2 4 4 5 6 4 4 4 6 7 8 6 5 6 6 7 10 4 2 2 1 4 4 5 7 1 9 9 9 11 12 11 11 10 9 8 8 9 9 9 9
3 4 5 5 5 5 6 6 7 9 8 7 4 1 1 2 1 0 1 1 3 3 1 2 3 3 2 3 5 6 3 4 3 4 2 5 5 4 2 3 4 3 4 3 1 1 1 3 5 4 4 5 6 6 7 7 7 7 5 5 6 5 8 6 1 3 2 1 4 4 6 6 5 10 8 9 11 11 10 10 10 9 9 8 8 9 9 8
3 3 5 7 6 6 7 8 9 8 4 3 1 4 2 4 2 1 1 0 3 3 1 1 2 1 2 2 3 4 2 3 2 5 4 7 4 2 1 1 5 3 3 3 2 0 2 4 2 3 6 6 6 5 4 5 6 6 5 5 5 5 6 3 4 3 2 2 4 6 6 1 9 9 8 10 10 10 9 10 10 9 9 8 9 9 9 8
4 3 4 7 7 6 7 9 9 5 1 1 3 4 3 4 4 0 2 2 1 1 1 1 2 0 3 3 3 4 4 2 2 4 6 9 4 1 2 3 5 4 2 3 3 3 3 0 3 5 5 5 6 6 4 3 4 5 4 4 5 3 4 2 2 1 2 3 8 8 5 2 8 8 9 9 9 10 10 10 10 8 9 9 9 9 9 9
5 4 3 6 8 6 7 9 7 4 3 4 5 6 5 4 3 1 2 2 1 1 1 2 1 3 2 1 3 4 2 4 3 3 8 8 4 2 2 3 4 4 3 3 3 4 4 3 3 3 3 3 5 6 5 3 3 4 2 2 4 5 5 3 4 7 7 8 9 7 5 2 6 7 8 7 7 9 8 9 10 8 9 9 9 9 9 9
5 5 5 7 8 7 6 5 5 4 3 3 4 5 4 2 2 1 2 1 1 1 0 1 1 1 2 2 3 2 1 3 3 5 7 6 4 3 2 1 2 2 3 5 5 4 4 3 3 4 4 3 4 4 4 3 4 4 2 3 4 6 7 6 8 8 6 5 2 1 3 2 6 8 8 7 7 9 8 8 9 9 9 8 8 8 8 9
5 6 6 8 9 9 6 2 3 5 4 4 3 3 2 2 2 2 2 2 1 1 0 1 2 0 3 1 1 1 0 1 3 3 3 3 2 2 2 1 2 1 4 4 3 1 1 2 2 3 3 5 5 2 4 5 4 3 1 3 6 6 7 8 8 5 3 5 2 3 2 3 4 7 9 8 8 9 8 8 9 8 8 8 7 7 8 9
5 6 8 9 11 12 5 1 3 5 3 2 3 4 4 2 0 1 2 1 1 0 1 1 1 1 2 2 3 2 1 1 1 0 1 2 2 2 2 2 0 1 2 1 2 0 0 2 3 4 3 5 3 1 3 5 3 3 2 3 6 7 8 8 7 4 4 6 6 4 5 5 3 5 9 10 9 9 8 9 9 8 8 8 8 8 8 9
4 6 9 10 12 13 5 3 1 3 1 1 3 5 5 3 1 1 2 1 1 1 1 1 0 1 0 1 3 1 2 1 1 1 1 2 2 2 2 3 3 3 2 1 1 1 1 3 4 5 4 3 2 2 4 5 1 3 3 4 6 8 9 8 5 4 5 5 6 6 5 5 2 5 8 8 9 8 8 9 9 8 8 8 8 9 9 9
4 7 10 10 13 15 4 3 2 2 2 2 3 6 4 2 0 1 2 0 0 0 0 0 1 1 2 1 1 2 2 0 2 2 2 1 1 1 1 2 3 4 3 1 3 1 2 3 3 2 1 2 3 2 3 2 3 3 4 6 7 8 8 7 4 3 4 3 6 7 3 3 0 4 5 4 6 5 5 7 7 8 8 8 9 9 9 8
4 6 9 11 13 13 5 3 3 4 2 1 3 6 3 0 2 1 1 0 1 1 0 1 1 3 5 0 2 4 2 2 3 1 2 0 0 0 1 1 1 3 1 2 4 1 3 2 1 1 1 2 3 1 1 3 4 4 6 6 6 7 5 4 4 2 2 2 6 6 5 3 0 3 2 3 4 3 4 5 6 8 9 9 9 8 9 8
6 8 12 11 10 9 5 2 3 4 3 2 3 4 1 1 2 1 1 1 1 1 0 1 1 3 4 3 2 4 2 1 3 2 1 2 3 6 5 2 1 1 1 1 2 1 4 2 0 1 1 1 3 2 2 3 2 3 4 4 4 6 3 1 2 3 1 3 4 1 6 4 1 1 3 4 4 5 5 5 7 9 8 7 7 7 7 7
9 12 14 9 6 7 3 1 2 3 3 3 3 2 1 1 1 1 1 1 1 2 1 1 2 3 3 1 2 4 2 1 3 2 2 3 5 8 8 5 4 3 2 2 2 1 2 1 1 1 0 0 1 3 1 1 1 2 3 4 4 4 3 2 2 1 2 4 3 3 7 5 1 3 5 6 7 7 6 7 7 7 7 7 6 6 6 5
11 11 10 5 4 5 2 0 2 3 4 3 1 1 2 1 1 1 1 1 0 1 1 1 3 4 3 1 3 3 0 1 3 1 1 3 5 6 8 9 8 4 2 3 4 2 1 1 1 1 1 1 1 3 3 2 3 3 4 4 3 3 3 3 3 3 4 5 7 10 10 4 2 4 6 7 8 7 7 7 7 6 6 6 5 5 4 4
9 8 6 4 4 3 1 1 2 2 3 1 1 2 2 1 2 1 1 3 2 1 1 0 3 3 1 1 1 2 1 1 2 2 2 3 4 4 6 8 10 6 3 3 2 1 2 1 1 1 1 2 1 3 1 4 4 3 2 2 2 1 2 3 3 4 5 6 9 10 7 3 1 3 5 7 6 6 6 6 5 5 5 4 4 4 3 3
8 7 7 6 6 5 3 2 1 2 1 1 2 2 1 2 2 1 1 2 2 2 2 1 2 3 1 2 2 1 2 0 2 5 4 4 4 3 3 5 7 6 3 2 1 1 2 2 2 1 1 2 1 2 2 3 2 2 3 2 1 1 1 3 4 6 7 7 7 6 2 3 3 4 7 6 6 7 7 6 6 6 5 5 5 5 5 4
7 6 6 6 7 5 3 2 1 1 1 3 2 0 1 2 2 2 2 2 2 3 5 3 2 2 1 2 1 2 1 1 1 2 3 4 4 4 3 2 5 7 4 2 2 2 2 3 2 2 1 0 2 1 0 2 1 2 4 2 2 4 2 2 6 6 6 6 5 5 1 3 3 4 5 5 7 8 7 6 6 6 6 6 5 5 6 5
3 5 5 6 7 5 2 2 2 2 2 2 1 2 2 1 2 2 2 3 1 1 4 2 1 2 3 2 2 5 4 1 2 2 2 2 1 4 3 2 5 7 5 3 2 1 2 5 5 2 3 1 3 3 1 1 2 1 2 2 3 3 2 1 3 3 4 6 5 6 7 4 1 2 3 6 7 8 7 6 6 5 6 5 5 5 5 6
2 3 4 6 8 5 3 2 3 3 3 1 3 3 2 2 2 3 3 3 1 1 3 2 2 1 3 3 2 5 6 4 4 4 2 1 1 3 3 2 4 7 7 4 1 1 2 4 3 2 2 0 3 3 1 2 2 0 2 3 2 0 1 2 3 3 5 7 5 6 10 6 1 2 3 7 8 8 7 6 5 5 4 4 5 5 6 6
1 1 2 6 9 5 2 2 2 3 2 0 3 2 2 3 3 2 2 2 2 2 2 2 1 2 3 2 1 3 4 3 4 4 2 2 2 2 4 3 4 6 8 5 2 3 3 1 1 1 2 1 1 1 1 1 2 1 2 3 1 1 1 1 2 2 4 7 6 7 7 2 3 2 4 6 5 5 7 5 3 4 4 5 6 7 7 7
2 1 1 6 8 5 3 3 2 1 1 2 3 2 1 2 2 2 2 2 1 1 2 2 2 3 3 2 1 2 3 3 3 3 2 3 1 2 5 5 4 7 9 5 1 3 3 2 2 3 4 4 1 0 0 1 2 2 2 3 2 1 1 1 3 3 2 5 5 6 6 1 3 2 3 4 2 3 5 5 3 5 6 7 7 6 7 7
2 1 1 5 7 5 4 2 1 2 2 3 3 3 1 1 2 2 2 2 1 1 2 3 4 4 3 2 2 3 3 3 3 3 2 3 3 2 4 5 5 6 7 4 1 2 3 2 3 4 5 5 1 0 1 4 5 3 2 2 2 2 2 3 5 2 1 3 3 5 8 3 2 1 1 2 3 5 5 4 3 6 8 8 8 8 8 8
1 1 2 5 6 7 4 1 2 3 3 2 2 3 1 0 1 1 1 1 1 0 1 2 4 4 3 3 3 3 4 2 3 3 2 3 4 3 4 6 6 5 4 3 2 2 1 2 3 4 5 3 2 2 2 6 6 1 1 2 3 2 1 1 5 3 2 4 4 5 8 4 1 2 1 2 6 8 6 2 3 5 7 9 10 9 10 10
1 1 2 5 7 7 3 3 3 4 4 2 1 2 2 1 1 0 1 2 2 1 1 2 3 3 3 3 2 3 4 2 3 4 2 3 3 3 4 7 7 5 3 3 3 2 1 1 2 4 4 1 3 2 3 4 4 2 2 4 4 2 2 1 4 2 2 5 5 6 7 3 3 3 1 4 8 9 5 3 4 7 8 10 11 10 9 10
2 1 2 5 8 5 2 2 3 3 3 3 3 3 2 3 3 2 3 4 3 2 2 2 2 3 3 2 2 3 3 2 3 3 2 3 2 2 4 6 6 5 3 2 2 3 2 1 2 4 4 2 1 1 3 2 3 4 2 4 4 3 3 1 3 1 2 3 1 4 7 3 1 4 8 12 13 12 8 7 8 10 12 12 11 9 10 10
1 1 2 4 8 5 1 1 3 5 4 4 4 3 2 3 3 3 3 4 3 3 2 1 1 3 3 1 1 2 3 2 2 2 2 3 2 1 4 6 5 4 3 1 3 2 1 2 2 2 3 4 4 3 4 4 5 5 2 3 3 3 4 1 2 2 3 2 3 4 7 6 8 11 14 16 15 12 10 10 11 12 13 12 10 10 10 10
1 0 1 1 4 5 1 0 3 6 5 3 3 3 3 3 2 1 2 3 3 4 3 2 1 1 3 3 0 2 4 3 3 3 3 3 1 2 3 3 4 3 1 3 4 2 1 3 2 2 3 4 4 6 8 8 7 8 6 1 3 3 4 3 1 3 3 4 4 6 6 10 12 12 14 16 14 11 10 12 13 13 13 12 11 11 11 10
1 0 1 0 1 3 3 3 3 4 3 1 1 1 2 4 3 1 2 2 2 3 2 4 4 2 4 4 1 2 4 2 4 3 2 2 2 1 1 2 3 2 1 2 5 3 1 3 2 2 4 4 6 10 12 11 10 10 9 2 4 3 4 3 2 3 3 3 6 6 8 11 12 12 15 15 12 11 12 13 13 13 13 13 13 13 12 12
1 0 0 1 0 2 2 2 2 4 4 3 2 1 3 4 2 2 2 1 1 2 1 3 5 5 5 5 2 2 5 1 3 2 1 2 3 2 1 2 1 3 1 2 4 3 0 3 1 2 6 7 8 12 12 10 8 8 8 3 3 2 3 4 3 4 2 4 7 8 10 12 12 12 14 12 11 12 13 13 14 14 15 15 14 14 14 13
1 2 0 1 1 2 1 1 1 5 5 4 3 2 3 5 3 2 2 1 2 3 4 3 3 5 5 5 3 2 3 2 1 0 0 1 3 2 1 1 2 2 4 3 2 2 1 1 3 5 8 9 9 11 9 7 6 7 7 2 2 1 2 2 3 4 5 7 8 9 11 14 12 11 12 12 12 12 11 12 14 16 16 16 15 15 15 14
1 2 1 2 3 3 1 2 1 5 4 3 3 2 2 4 4 3 2 3 2 3 5 3 3 2 3 5 5 3 2 3 1 2 1 1 2 0 0 1 1 2 3 3 2 3 1 2 6 5 6 8 8 8 7 6 8 11 7 2 3 1 2 2 2 3 5 6 8 9 12 13 9 9 12 12 11 11 12 14 15 15 15 16 16 17 16 15
3 2 2 4 3 2 2 1 0 3 3 4 2 1 1 4 4 3 3 4 4 3 4 3 3 2 1 5 5 3 3 3 3 4 3 2 2 1 1 2 2 2 2 3 1 3 2 2 5 4 4 7 8 8 10 10 12 13 5 3 2 0 1 2 3 2 3 5 8 10 10 9 8 10 12 12 13 14 15 16 15 14 15 16 16 17 16 15
3 2 0 2 3 2 2 1 2 3 2 2 2 2 2 4 4 2 2 2 4 4 3 2 3 2 2 4 3 2 3 3 3 4 3 3 3 2 1 1 2 2 2 2 0 0 1 1 3 3 4 7 8 10 12 11 10 9 2 3 2 1 3 5 5 4 4 5 6 8 8 9 10 10 11 12 14 16 15 15 15 15 15 16 17 17 15 13
Wind_Direction
315 313 312 315 342 5 11 346 322 318 300 274 251 242 237 242 251 255 255 221 224 244 222 259 273 259 258 214 185 194 228 258 268 255 238 210 42 340 318 332 335 325 323 318 289 272 266 239 235 228 239 242 222 248 224 202 232 225 232 245 255 263 273 298 322 345 346 328 330 339 346 339 321 324 342 335 258 265 269 271 275 264 240 223 238 214 151 159
308 309 315 313 321 338 349 335 322 317 309 292 261 248 241 240 244 247 249 232 233 238 233 257 265 260 256 226 213 236 269 278 272 261 217 148 282 286 308 348 346 339 333 312 292 285 277 270 244 210 237 250 215 218 169 184 215 220 250 256 259 268 282 307 325 335 334 332 329 329 337 331 317 320 320 296 290 292 293 296 290 278 265 230 225 201 165 167
312 315 317 314 316 318 317 322 324 315 306 297 278 258 245 239 238 240 241 238 237 237 238 249 253 260 251 236 229 239 285 290 275 254 139 142 251 265 348 2 357 351 324 305 309 304 292 298 294 240 245 252 229 204 167 187 207 212 236 250 258 278 294 309 322 327 336 346 330 317 324 316 305 308 305 304 304 297 288 283 280 283 302 327 289 216 167 166
315 317 315 314 314 308 302 309 318 311 299 289 279 262 247 236 234 234 234 236 236 234 235 240 247 248 244 245 235 236 286 289 278 131 125 155 236 253 1 6 3 345 316 313 305 295 287 288 284 264 260 261 258 233 217 233 223 211 223 256 278 295 303 305 313 334 12 356 321 307 306 301 306 316 308 310 302 288 276 275 294 312 324 335 333 327 125 161
314 316 315 314 310 305 302 310 314 303 288 277 271 259 250 240 232 229 229 232 232 233 230 233 241 238 243 251 234 233 281 278 111 110 131 154 235 266 349 12 8 351 317 301 289 282 277 267 257 257 257 260 267 248 232 236 240 254 251 268 283 291 292 291 304 4 47 334 304 295 295 305 316 310 300 299 284 274 279 289 302 312 317 325 326 330 350 25
313 314 311 308 305 307 309 313 309 295 279 265 256 250 247 243 235 228 227 226 227 229 225 228 230 224 235 248 225 208 259 261 115 130 136 135 249 251 324 13 7 5 345 287 282 277 273 257 241 248 248 253 268 264 257 248 236 257 259 272 287 291 290 296 314 353 4 310 294 289 295 309 306 292 290 279 266 267 283 292 299 302 303 320 325 320 342 338
311 306 301 301 301 307 310 306 297 285 273 258 246 240 239 239 235 229 223 221 223 223 222 222 217 216 222 226 200 209 245 243 130 156 155 165 236 334 318 6 8 1 313 282 278 274 282 266 252 265 269 264 274 276 287 305 300 266 270 279 283 287 290 299 313 308 299 290 281 286 293 295 287 286 290 273 267 270 282 291 297 304 310 326 328 320 333 320
308 298 295 298 300 305 303 296 288 278 268 256 246 238 235 234 230 228 221 218 219 219 219 214 209 210 195 166 208 237 241 134 130 159 157 172 317 5 330 355 2 334 286 283 296 301 306 280 268 289 293 288 303 305 319 318 287 262 275 284 279 280 292 303 304 293 284 275 274 279 277 274 272 282 285 273 274 279 282 304 333 347 355 3 340 329 337 322
301 294 295 296 301 306 301 293 285 276 264 251 241 235 233 229 225 227 222 217 216 217 216 208 205 202 195 193 263 264 193 105 127 153 119 54 23 22 2 320 314 296 278 279 304 296 298 300 308 343 323 307 304 302 315 304 272 290 307 306 302 295 296 298 291 286 283 276 274 279 278 273 272 284 279 270 275 294 350 29 20 15 7 354 346 355 14 18
294 295 297 297 304 310 307 298 287 276 260 242 232 228 226 218 218 222 220 215 211 212 208 203 201 196 199 209 260 273 119 116 147 140 96 56 52 37 1 314 294 284 285 292 287 284 297 328 336 340 323 304 304 299 283 271 282 325 316 301 296 290 287 282 276 274 274 276 279 283 284 275 274 288 271 274 337 63 56 37 13 16 20 23 28 32 32 32
293 297 298 300 312 318 314 309 308 300 258 223 214 214 213 205 202 205 210 209 203 203 200 198 198 195 208 232 258 264 114 124 151 110 69 53 44 3 315 301 299 291 295 294 277 277 303 331 335 310 287 308 317 302 280 319 320 308 303 293 285 281 279 269 263 262 252 256 304 299 285 275 251 234 248 261 326 67 61 25 31 37 35 31 33 39 37 31
295 299 302 309 321 328 333 356 21 28 150 174 185 194 199 189 184 190 197 198 196 194 192 193 194 192 233 261 257 140 110 136 150 98 51 32 358 301 302 293 279 290 298 293 294 352 334 335 323 283 286 335 314 302 314 354 320 290 291 290 285 283 279 264 251 243 216 182 66 357 293 280 194 216 246 250 292 46 51 40 43 42 39 36 32 39 38 28
294 298 309 322 330 342 7 35 47 65 111 134 150 163 169 162 166 174 179 184 187 188 185 186 185 192 253 278 189 133 128 153 156 91 56 353 306 275 314 311 268 276 287 284 300 350 342 318 296 278 310 315 297 335 318 297 283 275 272 273 286 299 285 257 189 129 136 122 71 42 306 344 162 202 237 71 73 60 56 48 48 44 40 38 33 36 35 28
288 300 320 327 337 8 36 46 52 72 92 110 123 128 133 137 144 152 162 173 175 180 178 177 180 201 251 264 114 160 152 150 157 65 34 323 313 265 247 278 251 263 271 267 278 288 275 280 277 275 284 264 289 339 304 276 263 258 265 262 271 301 269 141 116 133 143 126 104 111 246 334 42 87 58 56 67 70 67 55 48 46 42 39 35 34 33 30
282 301 318 327 19 45 53 57 63 83 96 105 113 120 127 133 139 146 155 159 161 168 163 172 189 221 259 201 109 173 154 153 161 143 271 312 329 289 233 244 257 258 258 254 255 252 249 250 256 270 267 192 269 301 283 272 252 224 244 279 226 193 241 160 138 165 166 144 156 145 246 285 65 59 46 52 67 72 70 59 53 49 44 40 37 35 33 30
281 289 275 292 67 69 72 76 83 98 110 112 115 121 126 129 133 137 142 145 148 152 151 174 203 229 279 230 126 175 165 167 141 148 298 318 314 300 304 284 261 247 243 238 239 233 230 239 242 273 281 221 240 263 284 286 266 194 181 276 276 241 270 204 155 199 178 127 165 193 266 288 72 57 52 56 67 71 71 63 57 52 46 43 38 37 36 29
272 251 219 149 112 94 91 95 102 112 116 114 117 120 121 122 122 123 127 135 141 148 170 261 242 227 272 35 164 184 119 97 82 61 319 320 293 291 297 279 252 237 234 223 229 223 212 222 207 164 232 234 250 272 303 294 300 71 177 260 278 277 303 312 262 209 178 173 198 217 222 254 276 58 58 58 67 72 71 64 59 54 48 46 41 39 38 31
251 221 177 145 138 114 107 109 114 125 124 120 123 120 117 113 107 107 113 124 140 163 226 277 290 232 208 188 105 65 73 69 11 287 297 317 311 291 278 279 273 254 240 223 220 214 197 193 206 260 259 226 231 220 219 269 314 334 293 277 291 301 310 297 289 154 173 201 221 235 245 262 262 82 67 58 68 72 70 64 61 57 50 47 43 40 39 34
231 208 164 145 144 124 122 124 127 136 130 124 123 120 120 115 103 102 128 145 171 200 263 222 269 291 273 50 37 40 355 331 312 283 298 334 315 287 268 271 274 260 255 236 193 196 206 205 229 263 267 242 233 206 216 263 300 311 310 304 293 297 290 284 286 156 190 234 225 239 260 276 279 93 79 65 69 71 72 67 61 58 52 47 43 41 38 37
216 206 175 156 148 134 132 134 140 137 128 121 116 121 127 131 126 128 166 210 283 14 326 324 327 306 292 19 10 353 320 288 248 147 84 310 305 294 262 245 250 243 250 257 174 159 324 296 252 243 256 277 320 351 324 316 322 320 315 296 281 282 280 281 274 137 76 353 250 255 267 278 39 91 85 77 73 70 70 68 63 58 53 48 44 42 38 38
201 207 188 174 165 150 143 143 146 141 129 118 113 244 343 15 311 62 144 178 32 15 309 327 326 300 327 6 359 355 328 244 200 118 48 314 296 288 238 212 248 234 215 241 200 78 348 254 253 261 293 327 358 1 353 341 325 309 294 284 281 271 273 290 61 127 107 104 268 270 271 286 77 88 81 77 73 68 68 68 67 60 56 51 43 41 37 36
203 207 193 188 182 163 156 155 154 150 128 100 244 278 350 27 332 307 294 162 49 340 285 334 279 207 84 55 11 351 293 243 159 114 26 337 293 257 18 275 268 261 158 191 212 182 226 233 264 8 9 359 346 337 337 317 300 289 280 274 273 271 281 321 88 139 148 127 271 267 268 349 88 89 80 81 81 80 75 72 71 62 59 53 43 40 32 28
216 210 202 201 191 174 166 164 165 179 244 330 302 304 345 341 312 248 273 256 109 279 272 18 303 63 102 117 29 330 283 309 64 93 13 342 309 285 338 299 286 299 260 224 243 272 262 229 47 27 11 343 324 314 292 282 280 263 254 259 268 313 337 335 82 316 282 263 266 268 273 108 106 98 86 87 92 93 86 80 75 64 60 53 48 42 28 25
228 221 217 208 198 186 171 170 185 221 273 288 289 303 316 306 274 186 288 267 138 175 323 357 342 24 42 169 334 318 306 13 18 30 11 344 326 342 295 303 312 292 278 305 310 286 297 21 29 349 352 343 324 312 298 295 292 277 267 293 297 346 359 324 315 315 297 271 259 260 276 196 144 124 106 105 99 92 85 80 75 62 58 52 46 42 29 27
234 223 212 207 202 189 172 177 210 227 254 261 260 276 282 256 228 263 308 250 150 134 258 272 199 55 4 268 285 326 9 33 27 12 6 348 330 318 292 321 295 295 19 5 337 293 303 348 344 341 359 340 308 308 352 19 317 309 23 21 352 352 339 315 311 316 306 293 264 172 292 244 149 135 126 125 103 87 79 73 70 61 55 49 43 39 29 28
230 214 203 203 195 183 173 174 197 198 217 227 226 242 228 197 237 298 301 244 165 100 27 186 175 47 11 322 289 352 358 64 45 7 356 358 322 271 300 352 218 354 27 354 321 290 307 21 13 3 350 319 299 289 28 28 329 301 300 339 347 334 309 293 295 305 286 293 295 149 259 272 158 142 135 128 108 92 81 68 64 61 53 49 43 36 32 31
223 204 197 195 186 179 172 63 172 186 208 212 215 219 198 190 251 346 273 225 127 357 316 119 158 324 26 24 322 320 68 116 118 311 318 349 324 233 269 349 351 22 36 342 331 345 152 54 38 17 354 328 330 339 14 19 342 278 256 309 323 302 286 280 284 281 259 286 284 220 213 242 224 143 132 124 106 90 78 65 58 55 50 48 43 36 35 32
219 196 189 187 181 177 159 25 203 200 273 294 218 203 189 183 70 347 261 175 100 272 312 98 188 302 352 343 328 13 110 186 224 129 227 279 308 243 242 360 357 342 5 4 318 329 37 48 41 23 4 346 7 19 11 12 319 244 247 286 289 275 273 275 274 266 269 293 292 264 224 235 246 131 143 130 98 76 71 64 51 47 46 43 40 37 36 33
197 182 180 177 178 183 184 2 306 273 317 307 212 191 182 183 284 296 247 202 47 241 358 70 141 326 302 233 46 67 121 330 19 125 177 235 294 254 277 16 340 309 321 232 249 300 57 54 47 33 4 352 355 11 29 345 248 263 291 284 276 262 257 257 244 261 284 278 272 279 273 259 251 131 159 120 80 52 53 62 49 45 43 38 36 33 31 29
162 163 165 162 170 188 220 302 267 269 280 259 191 187 176 162 254 259 227 266 31 119 275 339 149 312 326 41 96 38 70 59 24 164 180 101 341 311 38 55 264 284 291 218 250 289 82 79 46 46 3 321 311 295 158 243 268 324 311 288 284 272 249 214 197 217 291 275 266 292 347 356 34 105 69 53 63 30 34 55 45 40 39 36 33 28 25 22
134 140 145 145 160 183 209 231 219 234 229 197 179 185 190 232 241 283 56 181 72 46 284 32 37 332 354 45 52 7 27 49 360 346 30 71 37 22 30 34 332 347 46 211 250 166 106 97 123 36 337 299 286 258 201 247 286 342 299 291 316 304 287 181 179 169 193 276 263 314 27 12 255 94 69 79 73 51 46 49 41 34 32 33 31 27 22 16
123 136 138 135 157 180 201 238 191 198 195 190 175 179 244 240 219 34 46 201 250 353 12 100 14 355 2 35 13 359 7 7 356 13 51 79 65 40 41 29 353 360 30 358 336 104 113 92 206 187 311 358 296 294 308 282 272 303 299 325 345 333 338 329 296 239 246 280 291 19 14 359 195 81 83 88 66 56 54 51 45 33 24 23 25 25 17 10
115 134 137 128 155 175 212 223 147 162 161 165 181 235 262 271 50 46 7 356 286 318 260 212 320 324 306 327 5 353 8 291 328 354 128 107 92 66 58 37 8 3 341 324 343 349 359 296 268 63 16 249 325 360 350 310 313 333 349 5 355 338 334 308 295 295 276 289 315 332 337 321 147 87 79 81 66 61 58 52 49 39 27 16 12 16 9 6
105 122 128 115 116 125 125 122 130 148 141 122 260 242 267 31 75 191 359 30 42 254 227 248 308 295 303 69 35 354 52 211 330 11 36 79 80 56 50 33 16 10 308 298 8 341 311 316 292 7 331 271 14 64 197 276 305 324 334 331 309 312 318 293 298 309 296 296 305 309 314 304 146 107 103 97 84 71 59 50 43 36 31 10 352 358 1 1
100 108 106 89 74 64 60 79 121 156 144 284 250 237 307 50 71 56 30 17 355 333 321 318 288 261 125 108 139 40 50 139 30 34 28 40 54 40 40 22 13 13 336 330 19 336 333 319 195 149 304 305 30 124 188 302 308 285 322 329 261 271 313 282 274 281 285 290 294 288 296 45 70 142 139 112 85 65 48 37 25 15 17 5 342 346 355 349
101 94 75 53 39 29 33 47 320 210 212 264 254 261 56 66 16 15 13 311 317 331 309 295 302 310 57 115 122 34 51 177 5 38 76 69 57 45 48 35 21 22 20 1 311 324 360 288 220 136 272 251 82 113 283 360 330 289 335 5 249 248 212 259 275 277 284 280 280 283 269 88 106 157 135 80 56 46 33 21 12 3 4 359 344 345 347 343
94 90 74 40 21 5 357 353 294 246 244 279 336 52 75 73 353 8 1 323 328 309 300 313 31 351 6 41 32 7 355 313 324 333 113 114 51 27 14 26 43 26 11 360 293 55 41 287 265 213 233 194 77 54 46 347 352 349 307 330 313 274 184 193 283 290 298 279 273 289 285 274 225 168 94 47 28 20 13 7 4 1 359 351 336 332 340 348
81 115 100 35 10 349 313 304 285 251 250 272 89 73 36 50 20 18 6 327 291 268 315 17 59 10 9 5 5 1 355 353 342 350 65 97 352 23 6 357 29 11 349 341 303 354 3 302 274 217 231 139 80 64 63 295 304 195 273 314 23 52 316 332 310 306 296 282 275 279 278 284 18 74 40 20 11 2 350 350 353 346 341 332 325 329 344 350
268 202 123 15 358 346 315 293 277 258 257 219 99 92 47 69 50 17 11 334 295 297 344 36 24 39 44 9 330 8 10 360 338 345 38 30 355 39 32 355 334 341 337 327 311 327 323 286 278 263 257 233 143 115 63 295 277 268 329 336 89 152 269 304 299 290 282 278 281 283 279 306 65 49 23 17 9 347 329 326 321 316 329 339 339 343 344 342
263 239 92 355 350 347 313 287 289 296 337 51 71 78 65 89 80 37 16 348 314 339 13 24 355 9 38 44 88 29 359 333 339 360 31 26 37 58 33 8 324 325 325 312 319 344 323 284 291 309 315 317 335 96 10 43 14 13 351 336 10 355 317 308 265 250 265 280 288 303 294 294 89 62 44 25 339 301 298 287 289 327 350 348 340 340 336 336
264 167 43 346 346 338 311 293 354 21 78 66 64 68 36 66 79 56 23 345 334 33 32 32 29 27 15 11 55 27 337 318 358 22 47 32 39 56 27 6 333 323 323 323 15 23 356 312 292 309 322 321 344 52 50 88 68 29 318 317 25 30 4 323 286 279 25 298 296 307 290 273 106 97 88 36 338 322 301 284 328 347 346 336 333 338 337 336
281 129 9 343 336 330 328 43 30 20 68 67 54 64 32 289 63 39 350 340 344 6 60 38 28 34 31 8 11 13 354 350 5 12 64 57 36 28 4 345 327 314 318 340 13 36 10 289 277 282 298 325 55 44 45 87 85 34 292 41 44 21 58 267 282 312 360 297 296 289 281 276 164 209 160 27 347 334 321 342 12 337 332 332 333 338 337 333
27 88 33 360 343 332 341 89 58 36 69 106 92 49 14 18 73 68 3 9 4 3 34 58 32 28 53 19 337 7 9 358 20 26 65 87 63 25 353 340 335 336 346 350 355 360 322 268 304 290 284 347 81 48 16 67 74 20 4 58 59 30 57 177 261 314 312 282 286 270 271 265 186 199 38 4 340 334 333 12 351 328 335 336 331 335 334 326
56 61 59 16 1 343 325 89 92 85 95 118 113 79 48 49 43 35 37 26 12 6 18 65 44 10 36 17 327 18 14 360 52 53 52 74 81 28 5 2 1 12 35 18 328 335 332 331 352 325 308 331 8 339 335 357 12 346 353 71 78 68 59 296 262 279 254 266 331 273 268 269 272 342 359 351 343 344 347 349 339 333 337 336 333 333 326 318
105 77 101 38 28 36 24 87 111 124 127 123 112 106 117 89 37 5 37 36 16 16 22 66 38 351 13 20 267 41 33 32 51 45 48 54 98 104 30 20 27 43 60 320 274 279 308 301 317 317 304 312 309 305 317 326 329 317 312 99 93 104 118 152 286 267 259 345 21 280 270 306 329 343 350 341 334 337 338 334 330 330 333 333 330 324 317 318
244 77 124 56 34 52 66 23 101 120 135 138 108 87 86 101 100 339 22 35 21 22 28 45 23 297 350 357 282 54 40 55 56 43 47 20 346 99 51 34 54 59 20 310 313 314 298 284 292 300 278 288 305 305 309 312 300 292 293 140 141 143 127 123 251 252 279 339 307 270 296 319 320 333 337 326 323 329 330 328 326 327 329 326 321 316 316 320
296 23 84 158 46 62 63 38 58 104 128 122 94 81 80 100 127 112 28 28 25 19 33 47 30 22 20 1 339 27 8 49 83 56 38 349 332 58 132 114 64 13 247 332 351 15 324 291 351 7 301 294 307 298 293 290 280 285 296 256 153 128 109 129 223 281 326 320 275 292 326 315 310 325 321 312 320 329 327 327 327 326 322 319 315 313 314 315
352 117 105 260 357 69 66 18 35 79 76 72 77 70 99 97 85 56 42 46 119 8 14 74 44 38 35 353 319 2 347 19 104 47 355 356 334 305 190 140 74 339 350 40 21 54 153 278 25 3 305 297 294 285 282 283 282 292 297 273 168 140 138 160 220 275 292 261 272 308 322 305 305 314 307 310 327 326 323 327 327 322 316 313 313 313 313 311
64 95 70 287 60 77 74 307 80 87 70 70 72 33 73 91 79 66 29 341 148 18 4 68 65 39 33 3 3 45 1 6 107 293 61 359 301 285 332 107 133 32 40 63 31 55 139 296 12 340 303 299 292 286 287 286 284 290 287 250 145 162 195 207 242 269 273 272 287 311 308 297 298 301 305 319 324 316 319 325 319 315 313 313 313 312 310 308
106 108 106 102 82 66 27 312 111 106 75 52 64 25 51 84 88 101 40 6 55 25 5 49 68 36 37 28 37 68 25 356 302 289 359 339 307 174 30 354 88 35 37 65 8 353 50 11 357 337 294 296 301 298 296 289 289 295 292 137 115 331 316 325 329 324 301 294 304 309 298 290 292 304 312 317 316 316 320 317 312 311 312 312 310 307 304 303
74 89 122 115 89 11 343 344 34 99 68 38 54 46 59 81 86 103 73 31 40 41 15 28 24 327 121 62 51 51 12 346 301 308 332 316 317 30 49 10 15 340 360 62 17 335 11 335 327 329 293 295 310 314 308 306 300 295 286 133 127 46 22 330 313 317 311 309 309 301 291 290 304 318 317 315 317 318 314 310 309 309 308 307 304 301 298 298
90 77 104 110 95 354 336 28 19 50 73 31 37 54 68 89 90 78 85 78 61 53 35 360 329 298 126 80 47 354 329 314 293 315 328 293 291 325 43 34 11 6 21 50 104 56 51 324 306 325 297 291 307 312 309 310 302 286 257 109 96 57 8 322 305 308 313 312 301 285 280 295 312 321 318 314 315 312 309 310 308 305 306 305 299 295 295 296